Flag for Austria Weather past 2 weeks in Klagenfurt, Carinthia, Austria

Now
52 °F

Clear.


Feels Like: 51 °F
Forecast: 56 / 66 °F
Wind: 5 mph from Northwest

Location: Klagenfurt-Flughafen

Current Time: Oct 21, 2014 at 1:21:00 AM

Latest Report: Oct 21, 2014 at 12:50 AM


Visibility: 10 mi

Pressure: 29.98 "Hg

Humidity: 94%

Dew point: 50 °F

Location of KlagenfurtLocation

Historic Weather in Klagenfurt — Graph

°F

Klagenfurt temperature yesterday

Maximum temperature yesterday: 66 °F (at 3:20 PM)
Minimum temperature yesterday: 45 °F (at 6:50 AM)
Average temperature yesterday: 54 °F

Past Weeks' High & Low Weather Summary

 TemperatureHumidityPressure
High77 °F (Oct 11, 2:50 PM)100% (Oct 7, 12:20 AM)30.36 "Hg (Oct 7, 12:20 AM)
Low45 °F (Oct 7, 2:50 AM)38% (Oct 17, 5:20 PM)29.77 "Hg (Oct 15, 1:50 PM)
Average58 °F80%30.03 "Hg
* Reported Oct 5 11:20 PM — Oct 20 11:50 PM, Klagenfurt, Weather by CustomWeather, © 2014

Note: Actual official high and low records may vary slightly from our data, if they occured in-between our weather recording intervals... More about our weather records

Advertising

Klagenfurt weather history for previous 24 hours

 ConditionsComfort  
Time TempWeatherWind HumidityBarometerVisibility
11:50 PM
Oct 20
52 °FCool.2 mph94%30.01 "HgN/A
11:20 PM52 °FClear.6 mph94%30.01 "Hg10 mi
10:50 PM52 °FClear.2 mph94%30.01 "Hg10 mi
10:20 PM54 °FPassing clouds.3 mph94%30.04 "HgN/A
9:50 PM54 °FPassing clouds.3 mph94%30.04 "HgN/A
9:20 PM54 °FClear.5 mph94%30.04 "Hg10 mi
8:50 PM55 °FClear.5 mph88%30.04 "Hg10 mi
8:20 PM55 °FClear.1 mph88%30.04 "Hg10 mi
7:50 PM57 °FClear.2 mph88%30.07 "Hg10 mi
7:20 PM57 °FClear.1 mph88%30.07 "Hg10 mi
6:50 PM59 °FSunny.1 mph82%30.07 "Hg10 mi
6:20 PM61 °FSunny.2 mph77%30.07 "Hg10 mi
5:50 PM63 °FSunny.2 mph73%30.07 "Hg10 mi
5:20 PM64 °FSunny.2 mph68%30.07 "Hg10 mi
4:50 PM66 °FSunny.2 mph64%30.07 "Hg10 mi
4:20 PM66 °FSunny.2 mph60%30.07 "Hg10 mi
3:50 PM66 °FSunny.1 mph60%30.09 "Hg10 mi
3:20 PM66 °FSunny.1 mph60%30.09 "Hg10 mi
2:50 PM64 °FSunny.1 mph64%30.09 "Hg10 mi
2:20 PM64 °FSunny.2 mph64%30.09 "Hg10 mi
1:50 PM61 °FSunny.2 mph72%30.12 "Hg10 mi
1:20 PM61 °FPassing clouds.3 mph72%30.15 "HgN/A
12:50 PM59 °FSunny.2 mph77%30.15 "Hg10 mi
12:20 PM57 °FScattered clouds.3 mph88%30.18 "HgN/A
11:50 AM55 °FScattered clouds.3 mph88%30.18 "Hg5 mi
11:20 AM54 °FScattered clouds.2 mph88%30.18 "Hg5 mi
10:50 AM52 °FScattered clouds.2 mph94%30.21 "Hg5 mi
10:20 AM50 °FLight fog.1 mph94%30.21 "Hg1 mi
9:50 AM48 °FFog.1 mph100%30.21 "Hg1 mi
9:20 AM48 °FFog.2 mph100%30.21 "Hg1 mi
8:50 AM46 °FFog.1 mph100%30.21 "Hg1 mi
8:20 AM46 °FPassing clouds.5 mph93%30.21 "Hg1 mi
7:50 AM45 °FPassing clouds.3 mph100%30.21 "Hg1 mi
7:20 AM45 °FPassing clouds.5 mph100%30.21 "Hg1 mi
6:50 AM45 °FPassing clouds.2 mph100%30.21 "Hg1 mi
5:20 AM46 °FPassing clouds.5 mph100%30.21 "Hg1 mi
4:50 AM46 °FFog.2 mph100%30.21 "Hg0 mi
4:20 AM46 °FFog.6 mph100%30.21 "Hg0 mi
3:50 AM46 °FLight fog.2 mph100%30.21 "Hg1 mi
3:20 AM48 °FFog.6 mph94%30.21 "Hg1 mi
2:50 AM48 °FSnow. Fog.3 mph94%30.24 "Hg5 mi
2:20 AM48 °FSnow. Fog.2 mph100%30.24 "HgN/A
1:50 AM48 °FSleet. Overcast.6 mph100%30.24 "Hg1 mi
1:20 AM48 °FCool.3 mph100%30.24 "HgN/A
Weather by CustomWeather, © 2014

See weather overviewHow to use our weather pages